Location: D�pe
(52.6057°N, 8.1808°E)
Time: 07:39:36
(UTC+00:00)

Cosmos 1689 Rocket - Pass Details

Date: 29 October 2020
Orbit: 360 x 374 km, 97.5° (Epoch: 01 December)

Event Time Altitude Azimuth Distance (km) Brightness Sun altitude
Exits shadow 16:47:19 - 49° (NE) 1,526 4.5 -7.4°
Reaches altitude 10° 16:47:57 10° 58° (ENE) 1,357 4.2 -7.5°
Maximum altitude 16:49:33 14° 92° (E) 1,151 3.8 -7.7°
Drops below altitude 10° 16:51:08 10° 126° (SE) 1,348 4.4 -7.9°
Sets 16:53:45 0° 154° (SSE) 2,187 5.7 -8.3°
